Location: Churchill Northern Studies Centre
(58.7378°N, 93.8201°W)
Time: 08:43:32
(UTC-05:00)

Envisat - Pass Details

Date: 14 October 2017
Orbit: 764 x 766 km, 98.2° (Epoch: 23 October)

Event Time Altitude Azimuth Distance (km) Brightness Sun altitude
Exits shadow 21:00:13 20° 180° (S) 1,740 4.6 -22.4°
Maximum altitude 21:03:47 62° 258° (WSW) 862 3.4 -22.9°
Drops below altitude 10° 21:08:51 10° 339° (NNW) 2,317 6.1 -23.5°
Sets 21:11:12 0° 343° (NNW) 3,248 6.8 -23.8°
